Time,TemperatureF,DewpointF,PressureIn,WindDirection,WindDirectionDegrees,WindSpeedMPH,WindSpeedGustMPH,Humidity,HourlyPrecipIn,Conditions,Clouds,dailyrainin,SoftwareType,DateUTC
2013-07-28 00:02:00,74.7,67.7,29.88,ESE,117,0.0,0.0,79,0.00,,,0.00,WeatherCatV1.15B25,2013-07-28 05:02:00,
2013-07-28 00:07:00,74.6,67.6,29.88,ESE,117,0.0,0.0,79,0.00,,,0.00,WeatherCatV1.15B25,2013-07-28 05:07:00,
2013-07-28 00:12:00,74.4,67.4,29.88,ESE,117,0.0,0.0,79,0.00,,,0.00,WeatherCatV1.15B25,2013-07-28 05:12:00,
2013-07-28 00:17:00,74.3,67.7,29.88,ESE,117,0.0,0.0,80,0.00,,,0.00,WeatherCatV1.15B25,2013-07-28 05:17:00,
2013-07-28 00:22:00,74.2,67.6,29.88,ESE,117,0.0,0.0,80,0.00,,,0.00,WeatherCatV1.15B25,2013-07-28 05:22:00,
2013-07-28 00:27:00,74.0,67.4,29.88,ESE,117,0.0,0.0,80,0.00,,,0.00,WeatherCatV1.15B25,2013-07-28 05:27:00,
2013-07-28 00:32:00,73.9,67.7,29.87,ESE,117,0.0,0.0,81,0.00,,,0.00,WeatherCatV1.15B25,2013-07-28 05:32:00,
2013-07-28 00:37:00,73.7,67.5,29.87,ESE,117,0.0,0.0,81,0.00,,,0.00,WeatherCatV1.15B25,2013-07-28 05:37:00,
2013-07-28 00:42:00,73.6,67.4,29.87,ESE,117,0.0,0.0,81,0.00,,,0.00,WeatherCatV1.15B25,2013-07-28 05:42:00,
2013-07-28 00:47:00,73.4,67.6,29.87,ESE,117,0.0,0.0,82,0.00,,,0.00,WeatherCatV1.15B25,2013-07-28 05:47:00,
2013-07-28 00:52:00,73.3,67.5,29.87,ESE,117,0.0,0.0,82,0.00,,,0.00,WeatherCatV1.15B25,2013-07-28 05:52:00,
2013-07-28 00:57:00,73.1,67.3,29.87,ESE,117,0.0,0.0,82,0.00,,,0.00,WeatherCatV1.15B25,2013-07-28 05:57:00,
2013-07-28 01:02:00,73.1,67.3,29.87,ESE,117,0.0,0.0,82,0.00,,,0.00,WeatherCatV1.15B25,2013-07-28 06:02:00,
2013-07-28 01:07:00,73.0,67.5,29.87,ESE,117,0.0,0.0,83,0.00,,,0.00,WeatherCatV1.15B25,2013-07-28 06:07:00,
2013-07-28 01:12:00,72.9,67.4,29.87,ESE,117,0.0,0.0,83,0.00,,,0.00,WeatherCatV1.15B25,2013-07-28 06:12:00,
2013-07-28 01:17:00,72.8,67.3,29.87,ESE,117,0.0,0.0,83,0.00,,,0.00,WeatherCatV1.15B25,2013-07-28 06:17:00,
2013-07-28 01:22:00,72.8,67.3,29.87,ESE,117,0.0,0.0,83,0.00,,,0.00,WeatherCatV1.15B25,2013-07-28 06:22:00,
2013-07-28 01:27:00,72.7,67.2,29.87,ESE,117,0.0,0.0,83,0.00,,,0.00,WeatherCatV1.15B25,2013-07-28 06:27:00,
2013-07-28 01:32:00,72.6,67.1,29.87,ESE,117,0.0,0.0,83,0.00,,,0.00,WeatherCatV1.15B25,2013-07-28 06:32:00,
2013-07-28 01:37:00,72.6,67.1,29.87,ESE,117,0.0,0.0,83,0.00,,,0.00,WeatherCatV1.15B25,2013-07-28 06:37:00,
2013-07-28 01:42:00,72.6,67.1,29.87,ESE,117,0.0,0.0,83,0.00,,,0.00,WeatherCatV1.15B25,2013-07-28 06:42:00,
2013-07-28 01:47:00,72.5,67.0,29.86,ESE,117,0.0,0.0,83,0.00,,,0.00,WeatherCatV1.15B25,2013-07-28 06:47:00,
2013-07-28 01:52:00,72.4,66.9,29.86,ESE,117,0.0,0.0,83,0.00,,,0.00,WeatherCatV1.15B25,2013-07-28 06:52:00,
2013-07-28 01:57:00,72.4,66.9,29.86,ESE,117,0.0,0.0,83,0.00,,,0.00,WeatherCatV1.15B25,2013-07-28 06:57:00,
2013-07-28 02:02:00,72.3,66.8,29.86,SE,138,0.0,3.0,83,0.00,,,0.00,WeatherCatV1.15B25,2013-07-28 07:02:00,
2013-07-28 02:07:00,72.2,66.7,29.86,SE,138,0.0,0.0,83,0.00,,,0.00,WeatherCatV1.15B25,2013-07-28 07:07:00,
2013-07-28 02:12:00,72.2,66.7,29.86,SE,138,0.0,0.0,83,0.00,,,0.00,WeatherCatV1.15B25,2013-07-28 07:12:00,
2013-07-28 02:17:00,72.2,66.7,29.85,SE,138,0.0,0.0,83,0.00,,,0.00,WeatherCatV1.15B25,2013-07-28 07:17:00,
2013-07-28 02:22:00,72.1,66.6,29.85,SE,138,0.0,0.0,83,0.00,,,0.00,WeatherCatV1.15B25,2013-07-28 07:22:00,
2013-07-28 02:27:00,72.1,66.6,29.85,ENE,67,0.0,0.0,83,0.00,,,0.00,WeatherCatV1.15B25,2013-07-28 07:27:00,
2013-07-28 02:32:00,72.1,66.3,29.85,SE,136,0.0,0.0,82,0.00,,,0.00,WeatherCatV1.15B25,2013-07-28 07:32:00,
2013-07-28 02:37:00,72.1,66.6,29.85,SE,144,0.0,3.0,83,0.00,,,0.00,WeatherCatV1.15B25,2013-07-28 07:37:00,
2013-07-28 02:42:00,72.1,66.6,29.85,South,178,0.0,0.0,83,0.00,,,0.00,WeatherCatV1.15B25,2013-07-28 07:42:00,
2013-07-28 02:47:00,72.1,66.3,29.85,SE,143,0.0,0.0,82,0.00,,,0.00,WeatherCatV1.15B25,2013-07-28 07:47:00,
2013-07-28 02:52:00,72.0,66.2,29.85,SE,143,0.0,0.0,82,0.00,,,0.00,WeatherCatV1.15B25,2013-07-28 07:52:00,
2013-07-28 02:57:00,72.0,66.5,29.85,SE,143,0.0,1.0,83,0.00,,,0.00,WeatherCatV1.15B25,2013-07-28 07:57:00,
2013-07-28 03:02:00,71.9,66.4,29.86,SE,144,0.0,0.0,83,0.00,,,0.00,WeatherCatV1.15B25,2013-07-28 08:02:00,
2013-07-28 03:07:00,71.8,66.3,29.86,SE,144,0.0,0.0,83,0.00,,,0.00,WeatherCatV1.15B25,2013-07-28 08:07:00,
2013-07-28 03:12:00,71.8,66.3,29.86,SE,144,0.0,0.0,83,0.00,,,0.00,WeatherCatV1.15B25,2013-07-28 08:12:00,
2013-07-28 03:17:00,71.7,66.2,29.85,SE,144,0.0,0.0,83,0.00,,,0.00,WeatherCatV1.15B25,2013-07-28 08:17:00,
2013-07-28 03:22:00,71.5,66.4,29.85,SE,144,0.0,0.0,84,0.00,,,0.00,WeatherCatV1.15B25,2013-07-28 08:22:00,
2013-07-28 03:27:00,71.4,66.3,29.85,SE,144,0.0,0.0,84,0.00,,,0.00,WeatherCatV1.15B25,2013-07-28 08:27:00,
2013-07-28 03:32:00,71.3,66.2,29.85,SE,144,0.0,0.0,84,0.00,,,0.00,WeatherCatV1.15B25,2013-07-28 08:32:00,
2013-07-28 03:37:00,71.2,66.1,29.85,SE,144,0.0,0.0,84,0.00,,,0.00,WeatherCatV1.15B25,2013-07-28 08:37:00,
2013-07-28 03:42:00,71.1,66.0,29.85,SE,144,0.0,0.0,84,0.00,,,0.00,WeatherCatV1.15B25,2013-07-28 08:42:00,
2013-07-28 03:47:00,71.0,66.3,29.85,SE,144,0.0,0.0,85,0.00,,,0.00,WeatherCatV1.15B25,2013-07-28 08:47:00,
2013-07-28 03:52:00,70.9,66.2,29.85,SE,144,0.0,0.0,85,0.00,,,0.00,WeatherCatV1.15B25,2013-07-28 08:52:00,
2013-07-28 03:57:00,70.8,66.1,29.85,SE,144,0.0,0.0,85,0.00,,,0.00,WeatherCatV1.15B25,2013-07-28 08:57:00,
2013-07-28 04:02:00,70.7,66.3,29.85,SE,144,0.0,0.0,86,0.00,,,0.00,WeatherCatV1.15B25,2013-07-28 09:02:00,
2013-07-28 04:07:00,70.6,66.2,29.85,SE,144,0.0,0.0,86,0.00,,,0.00,WeatherCatV1.15B25,2013-07-28 09:07:00,
2013-07-28 04:12:00,70.6,66.2,29.85,SE,140,0.0,2.0,86,0.00,,,0.00,WeatherCatV1.15B25,2013-07-28 09:12:00,
2013-07-28 04:17:00,70.5,66.1,29.85,SE,140,0.0,0.0,86,0.00,,,0.00,WeatherCatV1.15B25,2013-07-28 09:17:00,
2013-07-28 04:22:00,70.4,66.0,29.85,SSE,150,0.0,0.0,86,0.00,,,0.00,WeatherCatV1.15B25,2013-07-28 09:22:00,
2013-07-28 04:27:00,70.3,66.2,29.85,SSE,163,0.0,2.0,87,0.00,,,0.00,WeatherCatV1.15B25,2013-07-28 09:27:00,
2013-07-28 04:32:00,70.3,66.2,29.85,SE,138,0.0,1.0,87,0.00,,,0.00,WeatherCatV1.15B25,2013-07-28 09:32:00,
2013-07-28 04:37:00,70.2,66.1,29.85,SE,138,0.0,0.0,87,0.00,,,0.00,WeatherCatV1.15B25,2013-07-28 09:37:00,
2013-07-28 04:42:00,70.1,66.0,29.85,SE,138,0.0,0.0,87,0.00,,,0.00,WeatherCatV1.15B25,2013-07-28 09:42:00,
2013-07-28 04:47:00,70.1,66.0,29.85,SE,138,0.0,0.0,87,0.00,,,0.00,WeatherCatV1.15B25,2013-07-28 09:47:00,
2013-07-28 04:52:00,70.1,66.4,29.85,SSE,163,0.0,0.0,88,0.00,,,0.00,WeatherCatV1.15B25,2013-07-28 09:52:00,
2013-07-28 04:57:00,70.0,66.3,29.85,SSE,163,0.0,0.0,88,0.00,,,0.00,WeatherCatV1.15B25,2013-07-28 09:57:00,
2013-07-28 05:02:00,70.0,66.3,29.85,ESE,117,0.0,1.0,88,0.00,,,0.00,WeatherCatV1.15B25,2013-07-28 10:02:00,
2013-07-28 05:07:00,69.9,66.2,29.85,ESE,117,0.0,0.0,88,0.00,,,0.00,WeatherCatV1.15B25,2013-07-28 10:07:00,
2013-07-28 05:12:00,69.9,66.2,29.85,ESE,117,0.0,0.0,88,0.00,,,0.00,WeatherCatV1.15B25,2013-07-28 10:12:00,
2013-07-28 05:17:00,69.8,66.4,29.85,ESE,117,0.0,0.0,89,0.00,,,0.00,WeatherCatV1.15B25,2013-07-28 10:17:00,
2013-07-28 05:22:00,69.8,66.4,29.85,SE,125,0.0,1.0,89,0.00,,,0.00,WeatherCatV1.15B25,2013-07-28 10:22:00,
2013-07-28 05:27:00,69.7,66.3,29.85,SE,125,0.0,0.0,89,0.00,,,0.00,WeatherCatV1.15B25,2013-07-28 10:27:00,
2013-07-28 05:32:00,69.7,66.3,29.85,SE,125,0.0,0.0,89,0.00,,,0.00,WeatherCatV1.15B25,2013-07-28 10:32:00,
2013-07-28 05:37:00,69.6,66.2,29.85,SE,125,0.0,0.0,89,0.00,,,0.00,WeatherCatV1.15B25,2013-07-28 10:37:00,
2013-07-28 05:42:00,69.5,66.1,29.85,SE,125,0.0,0.0,89,0.00,,,0.00,WeatherCatV1.15B25,2013-07-28 10:42:00,
2013-07-28 05:47:00,69.4,66.0,29.85,SE,125,0.0,0.0,89,0.00,,,0.00,WeatherCatV1.15B25,2013-07-28 10:47:00,
2013-07-28 05:52:00,69.4,66.0,29.85,SE,125,0.0,0.0,89,0.00,,,0.00,WeatherCatV1.15B25,2013-07-28 10:52:00,
2013-07-28 05:57:00,69.3,65.9,29.85,SE,125,0.0,0.0,89,0.00,,,0.00,WeatherCatV1.15B25,2013-07-28 10:57:00,
2013-07-28 06:02:00,69.2,65.8,29.86,SE,125,0.0,0.0,89,0.00,,,0.00,WeatherCatV1.15B25,2013-07-28 11:02:00,
2013-07-28 06:07:00,69.2,65.8,29.86,SE,125,0.0,0.0,89,0.00,,,0.00,WeatherCatV1.15B25,2013-07-28 11:07:00,
2013-07-28 06:12:00,69.1,65.7,29.86,SE,125,0.0,0.0,89,0.00,,,0.00,WeatherCatV1.15B25,2013-07-28 11:12:00,
2013-07-28 06:17:00,69.0,65.6,29.87,SE,125,0.0,0.0,89,0.00,,,0.00,WeatherCatV1.15B25,2013-07-28 11:17:00,
2013-07-28 06:22:00,68.9,65.5,29.87,SE,125,0.0,0.0,89,0.00,,,0.00,WeatherCatV1.15B25,2013-07-28 11:22:00,
2013-07-28 06:27:00,68.8,65.7,29.87,SE,125,0.0,0.0,90,0.00,,,0.00,WeatherCatV1.15B25,2013-07-28 11:27:00,
2013-07-28 06:32:00,68.7,65.6,29.88,SE,125,0.0,0.0,90,0.00,,,0.00,WeatherCatV1.15B25,2013-07-28 11:32:00,
2013-07-28 06:37:00,68.6,65.5,29.88,SE,125,0.0,0.0,90,0.00,,,0.00,WeatherCatV1.15B25,2013-07-28 11:37:00,
2013-07-28 06:42:00,68.5,65.8,29.88,SE,125,0.0,0.0,91,0.00,,,0.00,WeatherCatV1.15B25,2013-07-28 11:42:00,
2013-07-28 06:47:00,68.4,65.7,29.88,SE,125,0.0,0.0,91,0.00,,,0.00,WeatherCatV1.15B25,2013-07-28 11:47:00,
2013-07-28 06:52:00,68.3,65.6,29.88,SE,125,0.0,0.0,91,0.00,,,0.00,WeatherCatV1.15B25,2013-07-28 11:52:00,
2013-07-28 06:57:00,68.3,65.6,29.88,SE,125,0.0,1.0,91,0.00,,,0.00,WeatherCatV1.15B25,2013-07-28 11:57:00,
2013-07-28 07:02:00,68.2,65.8,29.88,SE,125,0.0,0.0,92,0.00,,,0.00,WeatherCatV1.15B25,2013-07-28 12:02:00,
2013-07-28 07:07:00,68.2,65.8,29.88,SE,125,0.0,0.0,92,0.00,,,0.00,WeatherCatV1.15B25,2013-07-28 12:07:00,
2013-07-28 07:12:00,68.2,65.8,29.88,SE,125,0.0,0.0,92,0.00,,,0.00,WeatherCatV1.15B25,2013-07-28 12:12:00,
2013-07-28 07:17:00,68.3,65.9,29.88,SE,125,0.0,0.0,92,0.00,,,0.00,WeatherCatV1.15B25,2013-07-28 12:17:00,
2013-07-28 07:22:00,68.3,66.2,29.88,SE,125,0.0,0.0,93,0.00,,,0.00,WeatherCatV1.15B25,2013-07-28 12:22:00,
2013-07-28 07:27:00,68.4,66.3,29.88,SE,125,0.0,0.0,93,0.00,,,0.00,WeatherCatV1.15B25,2013-07-28 12:27:00,
2013-07-28 07:32:00,68.5,66.4,29.89,SE,125,0.0,0.0,93,0.00,,,0.00,WeatherCatV1.15B25,2013-07-28 12:32:00,
2013-07-28 07:37:00,68.6,66.5,29.89,SE,125,0.0,0.0,93,0.00,,,0.00,WeatherCatV1.15B25,2013-07-28 12:37:00,
2013-07-28 07:42:00,68.6,66.5,29.89,SE,126,0.0,0.0,93,0.00,,,0.00,WeatherCatV1.15B25,2013-07-28 12:42:00,
2013-07-28 07:47:00,68.8,66.7,29.90,SE,126,0.0,1.0,93,0.00,,,0.00,WeatherCatV1.15B25,2013-07-28 12:47:00,
2013-07-28 07:52:00,68.9,67.1,29.90,SSE,156,0.0,1.0,94,0.00,,,0.00,WeatherCatV1.15B25,2013-07-28 12:52:00,
2013-07-28 07:57:00,69.1,67.3,29.90,SSE,155,0.0,0.0,94,0.00,,,0.00,WeatherCatV1.15B25,2013-07-28 12:57:00,
2013-07-28 08:02:00,69.4,67.6,29.90,SSE,155,0.0,0.0,94,0.00,,,0.00,WeatherCatV1.15B25,2013-07-28 13:02:00,
2013-07-28 08:07:00,69.6,67.8,29.90,SE,142,0.0,1.0,94,0.00,,,0.00,WeatherCatV1.15B25,2013-07-28 13:07:00,
2013-07-28 08:12:00,69.9,68.1,29.90,SE,142,0.0,0.0,94,0.00,,,0.00,WeatherCatV1.15B25,2013-07-28 13:12:00,
2013-07-28 08:17:00,70.3,68.5,29.90,SE,142,0.0,1.0,94,0.00,,,0.00,WeatherCatV1.15B25,2013-07-28 13:17:00,
2013-07-28 08:22:00,70.6,68.5,29.90,SSE,154,5.0,6.0,93,0.00,,,0.00,WeatherCatV1.15B25,2013-07-28 13:22:00,
2013-07-28 08:27:00,71.1,69.0,29.90,South,178,0.0,3.0,93,0.00,,,0.00,WeatherCatV1.15B25,2013-07-28 13:27:00,
2013-07-28 08:32:00,71.6,69.1,29.90,South,169,1.0,3.0,92,0.00,,,0.00,WeatherCatV1.15B25,2013-07-28 13:32:00,
2013-07-28 08:37:00,72.0,69.2,29.90,SSE,165,0.0,0.0,91,0.00,,,0.00,WeatherCatV1.15B25,2013-07-28 13:37:00,
2013-07-28 08:42:00,72.4,69.3,29.90,South,179,0.0,3.0,90,0.00,,,0.00,WeatherCatV1.15B25,2013-07-28 13:42:00,
2013-07-28 08:47:00,72.7,69.6,29.91,South,175,0.0,0.0,90,0.00,,,0.00,WeatherCatV1.15B25,2013-07-28 13:47:00,
2013-07-28 08:52:00,73.2,69.8,29.91,SSE,154,0.0,2.0,89,0.00,,,0.00,WeatherCatV1.15B25,2013-07-28 13:52:00,
2013-07-28 08:57:00,73.7,70.2,29.91,South,169,3.0,5.0,89,0.00,,,0.00,WeatherCatV1.15B25,2013-07-28 13:57:00,
2013-07-28 09:02:00,74.3,70.5,29.91,South,190,0.0,4.0,88,0.00,,,0.00,WeatherCatV1.15B25,2013-07-28 14:02:00,
2013-07-28 09:07:00,75.1,71.3,29.91,ESE,111,0.0,0.0,88,0.00,,,0.00,WeatherCatV1.15B25,2013-07-28 14:07:00,
2013-07-28 09:12:00,75.9,71.4,29.91,SSE,150,5.0,5.0,86,0.00,,,0.00,WeatherCatV1.15B25,2013-07-28 14:12:00,
2013-07-28 09:17:00,76.5,71.6,29.91,SSW,192,2.0,4.0,85,0.00,,,0.00,WeatherCatV1.15B25,2013-07-28 14:17:00,
2013-07-28 09:22:00,76.9,71.3,29.91,SSW,205,0.0,5.0,83,0.00,,,0.00,WeatherCatV1.15B25,2013-07-28 14:22:00,
2013-07-28 09:27:00,77.0,71.1,29.91,South,188,0.0,5.0,82,0.00,,,0.00,WeatherCatV1.15B25,2013-07-28 14:27:00,
2013-07-28 09:32:00,77.3,71.7,29.91,SSE,157,0.0,3.0,83,0.00,,,0.00,WeatherCatV1.15B25,2013-07-28 14:32:00,
2013-07-28 09:37:00,77.7,71.4,29.91,South,171,4.0,5.0,81,0.00,,,0.00,WeatherCatV1.15B25,2013-07-28 14:37:00,
2013-07-28 09:42:00,78.2,71.5,29.91,South,179,7.0,7.0,80,0.00,,,0.00,WeatherCatV1.15B25,2013-07-28 14:42:00,
2013-07-28 09:47:00,78.8,71.0,29.90,SSE,163,0.0,6.0,77,0.00,,,0.00,WeatherCatV1.15B25,2013-07-28 14:47:00,
2013-07-28 09:52:00,79.5,71.6,29.90,SE,127,3.0,3.0,77,0.00,,,0.00,WeatherCatV1.15B25,2013-07-28 14:52:00,
2013-07-28 09:57:00,80.5,71.8,29.90,South,187,4.0,5.0,75,0.00,,,0.00,WeatherCatV1.15B25,2013-07-28 14:57:00,
2013-07-28 10:02:00,81.3,72.2,29.90,South,188,4.0,7.0,74,0.00,,,0.00,WeatherCatV1.15B25,2013-07-28 15:02:00,
2013-07-28 10:07:00,81.9,71.5,29.90,South,169,0.0,4.0,71,0.00,,,0.00,WeatherCatV1.15B25,2013-07-28 15:07:00,
2013-07-28 10:12:00,82.2,71.4,29.90,South,188,5.0,5.0,70,0.00,,,0.00,WeatherCatV1.15B25,2013-07-28 15:12:00,
2013-07-28 10:17:00,82.8,70.7,29.90,SSE,157,3.0,5.0,67,0.00,,,0.00,WeatherCatV1.15B25,2013-07-28 15:17:00,
2013-07-28 10:22:00,83.2,70.2,29.90,SE,124,1.0,4.0,65,0.00,,,0.00,WeatherCatV1.15B25,2013-07-28 15:22:00,
2013-07-28 10:27:00,83.9,71.3,29.90,South,183,3.0,5.0,66,0.00,,,0.00,WeatherCatV1.15B25,2013-07-28 15:27:00,
2013-07-28 10:32:00,84.3,69.8,29.90,SSE,168,0.0,2.0,62,0.00,,,0.00,WeatherCatV1.15B25,2013-07-28 15:32:00,
2013-07-28 10:37:00,84.6,70.1,29.90,South,172,2.0,10.0,62,0.00,,,0.00,WeatherCatV1.15B25,2013-07-28 15:37:00,
2013-07-28 10:42:00,84.6,70.6,29.90,SSW,203,0.0,3.0,63,0.00,,,0.00,WeatherCatV1.15B25,2013-07-28 15:42:00,
2013-07-28 10:47:00,84.7,70.7,29.90,South,171,0.0,5.0,63,0.00,,,0.00,WeatherCatV1.15B25,2013-07-28 15:47:00,
2013-07-28 10:52:00,85.1,70.1,29.90,South,185,3.0,6.0,61,0.00,,,0.00,WeatherCatV1.15B25,2013-07-28 15:52:00,
2013-07-28 10:57:00,85.4,69.9,29.90,East,96,1.0,6.0,60,0.00,,,0.00,WeatherCatV1.15B25,2013-07-28 15:57:00,
2013-07-28 11:02:00,86.0,70.0,29.89,NE,36,1.0,6.0,59,0.00,,,0.00,WeatherCatV1.15B25,2013-07-28 16:02:00,
2013-07-28 11:07:00,86.6,70.5,29.89,NW,306,0.0,5.0,59,0.00,,,0.00,WeatherCatV1.15B25,2013-07-28 16:07:00,
2013-07-28 11:12:00,86.8,70.7,29.89,SSW,192,0.0,4.0,59,0.00,,,0.00,WeatherCatV1.15B25,2013-07-28 16:12:00,
2013-07-28 11:17:00,87.0,70.4,29.89,NE,40,0.0,5.0,58,0.00,,,0.00,WeatherCatV1.15B25,2013-07-28 16:17:00,
2013-07-28 11:22:00,87.4,69.7,29.89,SE,140,0.0,7.0,56,0.00,,,0.00,WeatherCatV1.15B25,2013-07-28 16:22:00,
2013-07-28 11:27:00,87.7,70.0,29.89,SSW,194,11.0,11.0,56,0.00,,,0.00,WeatherCatV1.15B25,2013-07-28 16:27:00,
2013-07-28 11:32:00,87.8,70.6,29.89,SSE,160,1.0,5.0,57,0.00,,,0.00,WeatherCatV1.15B25,2013-07-28 16:32:00,
2013-07-28 11:37:00,88.2,70.0,29.89,East,101,5.0,5.0,55,0.00,,,0.00,WeatherCatV1.15B25,2013-07-28 16:37:00,
2013-07-28 11:42:00,88.5,70.2,29.89,ESE,117,2.0,6.0,55,0.00,,,0.00,WeatherCatV1.15B25,2013-07-28 16:42:00,
2013-07-28 11:47:00,88.8,70.5,29.89,ENE,57,0.0,0.0,55,0.00,,,0.00,WeatherCatV1.15B25,2013-07-28 16:47:00,
2013-07-28 11:52:00,89.2,70.9,29.89,East,97,1.0,4.0,55,0.00,,,0.00,WeatherCatV1.15B25,2013-07-28 16:52:00,
2013-07-28 11:57:00,89.2,70.9,29.89,ESE,121,0.0,0.0,55,0.00,,,0.00,WeatherCatV1.15B25,2013-07-28 16:57:00,
2013-07-28 12:02:00,89.1,70.8,29.89,SSE,153,2.0,2.0,55,0.00,,,0.00,WeatherCatV1.15B25,2013-07-28 17:02:00,
2013-07-28 12:07:00,89.0,69.6,29.89,SE,134,0.0,5.0,53,0.00,,,0.00,WeatherCatV1.15B25,2013-07-28 17:07:00,
2013-07-28 12:12:00,89.1,70.2,29.89,SSE,165,4.0,5.0,54,0.00,,,0.00,WeatherCatV1.15B25,2013-07-28 17:12:00,
2013-07-28 12:17:00,89.3,71.0,29.88,ESE,103,0.0,2.0,55,0.00,,,0.00,WeatherCatV1.15B25,2013-07-28 17:17:00,
2013-07-28 12:22:00,89.3,69.9,29.88,SE,143,0.0,2.0,53,0.00,,,0.00,WeatherCatV1.15B25,2013-07-28 17:22:00,
2013-07-28 12:27:00,89.2,70.3,29.88,NE,53,0.0,0.0,54,0.00,,,0.00,WeatherCatV1.15B25,2013-07-28 17:27:00,
2013-07-28 12:32:00,89.5,69.5,29.88,East,99,1.0,3.0,52,0.00,,,0.00,WeatherCatV1.15B25,2013-07-28 17:32:00,
2013-07-28 12:37:00,89.8,70.9,29.88,SSW,198,4.0,9.0,54,0.00,,,0.00,WeatherCatV1.15B25,2013-07-28 17:37:00,
2013-07-28 12:42:00,90.1,70.6,29.88,WNW,289,0.0,9.0,53,0.00,,,0.00,WeatherCatV1.15B25,2013-07-28 17:42:00,
2013-07-28 12:47:00,90.5,71.0,29.88,SW,215,1.0,6.0,53,0.00,,,0.00,WeatherCatV1.15B25,2013-07-28 17:47:00,
2013-07-28 12:52:00,90.9,70.8,29.88,South,175,3.0,6.0,52,0.00,,,0.00,WeatherCatV1.15B25,2013-07-28 17:52:00,
2013-07-28 12:57:00,91.2,71.6,29.88,SSW,206,1.0,3.0,53,0.00,,,0.00,WeatherCatV1.15B25,2013-07-28 17:57:00,
2013-07-28 13:02:00,91.5,71.3,29.87,SSW,192,4.0,4.0,52,0.00,,,0.00,WeatherCatV1.15B25,2013-07-28 18:02:00,
2013-07-28 13:07:00,91.8,70.5,29.87,SSW,198,3.0,7.0,50,0.00,,,0.00,WeatherCatV1.15B25,2013-07-28 18:07:00,
2013-07-28 13:12:00,92.0,70.1,29.87,East,98,2.0,11.0,49,0.00,,,0.00,WeatherCatV1.15B25,2013-07-28 18:12:00,
2013-07-28 13:17:00,91.9,70.0,29.87,East,85,4.0,5.0,49,0.00,,,0.00,WeatherCatV1.15B25,2013-07-28 18:17:00,
2013-07-28 13:22:00,92.0,71.2,29.87,East,87,3.0,4.0,51,0.00,,,0.00,WeatherCatV1.15B25,2013-07-28 18:22:00,
2013-07-28 13:27:00,92.2,69.6,29.87,SSW,213,4.0,5.0,48,0.00,,,0.00,WeatherCatV1.15B25,2013-07-28 18:27:00,
2013-07-28 13:32:00,92.2,70.2,29.86,SW,234,0.0,2.0,49,0.00,,,0.00,WeatherCatV1.15B25,2013-07-28 18:32:00,
2013-07-28 13:37:00,92.5,69.9,29.86,NNE,27,2.0,4.0,48,0.00,,,0.00,WeatherCatV1.15B25,2013-07-28 18:37:00,
2013-07-28 13:42:00,92.9,71.5,29.86,ESE,103,1.0,6.0,50,0.00,,,0.00,WeatherCatV1.15B25,2013-07-28 18:42:00,
2013-07-28 13:47:00,93.0,69.7,29.86,SE,140,2.0,3.0,47,0.00,,,0.00,WeatherCatV1.15B25,2013-07-28 18:47:00,
2013-07-28 13:52:00,93.3,71.2,29.86,SE,126,0.0,0.0,49,0.00,,,0.00,WeatherCatV1.15B25,2013-07-28 18:52:00,
2013-07-28 13:57:00,93.1,69.8,29.86,SSW,208,2.0,6.0,47,0.00,,,0.00,WeatherCatV1.15B25,2013-07-28 18:57:00,
2013-07-28 14:03:00,92.8,70.8,29.86,SSE,151,5.0,6.0,49,0.00,,,0.00,WeatherCatV1.15B25,2013-07-28 19:03:00,
2013-07-28 14:08:00,92.6,70.6,29.86,SW,224,1.0,5.0,49,0.00,,,0.00,WeatherCatV1.15B25,2013-07-28 19:08:00,
2013-07-28 14:13:00,92.4,70.4,29.86,SSW,204,0.0,1.0,49,0.00,,,0.00,WeatherCatV1.15B25,2013-07-28 19:13:00,
2013-07-28 14:18:00,92.7,70.7,29.86,SSE,161,0.0,5.0,49,0.00,,,0.00,WeatherCatV1.15B25,2013-07-28 19:18:00,
2013-07-28 14:23:00,92.7,70.7,29.86,SSE,161,0.0,2.0,49,0.00,,,0.00,WeatherCatV1.15B25,2013-07-28 19:23:00,
2013-07-28 14:28:00,92.5,69.9,29.86,SSW,205,0.0,5.0,48,0.00,,,0.00,WeatherCatV1.15B25,2013-07-28 19:28:00,
2013-07-28 14:33:00,92.2,70.2,29.85,WSW,242,1.0,2.0,49,0.00,,,0.00,WeatherCatV1.15B25,2013-07-28 19:33:00,
2013-07-28 14:38:00,92.4,70.4,29.85,SW,222,1.0,4.0,49,0.00,,,0.00,WeatherCatV1.15B25,2013-07-28 19:38:00,
2013-07-28 14:43:00,92.8,70.2,29.85,East,96,0.0,5.0,48,0.00,,,0.00,WeatherCatV1.15B25,2013-07-28 19:43:00,
2013-07-28 14:48:00,93.0,70.4,29.84,SSE,158,2.0,9.0,48,0.00,,,0.00,WeatherCatV1.15B25,2013-07-28 19:48:00,
2013-07-28 14:53:00,92.4,69.8,29.84,SSW,194,5.0,5.0,48,0.00,,,0.00,WeatherCatV1.15B25,2013-07-28 19:53:00,
2013-07-28 14:58:00,92.1,70.7,29.84,SSW,202,0.0,5.0,50,0.00,,,0.00,WeatherCatV1.15B25,2013-07-28 19:58:00,
2013-07-28 15:03:00,92.7,70.7,29.84,SE,132,0.0,3.0,49,0.00,,,0.00,WeatherCatV1.15B25,2013-07-28 20:03:00,
2013-07-28 15:08:00,93.2,71.7,29.84,South,184,1.0,3.0,50,0.00,,,0.00,WeatherCatV1.15B25,2013-07-28 20:08:00,
2013-07-28 15:13:00,93.4,70.7,29.84,SE,143,0.0,0.0,48,0.00,,,0.00,WeatherCatV1.15B25,2013-07-28 20:13:00,
2013-07-28 15:18:00,93.7,70.4,29.83,NNE,21,0.0,5.0,47,0.00,,,0.00,WeatherCatV1.15B25,2013-07-28 20:18:00,
2013-07-28 15:23:00,93.5,70.2,29.83,SW,222,0.0,5.0,47,0.00,,,0.00,WeatherCatV1.15B25,2013-07-28 20:23:00,
2013-07-28 15:28:00,93.0,71.0,29.83,SW,221,4.0,5.0,49,0.00,,,0.00,WeatherCatV1.15B25,2013-07-28 20:28:00,
2013-07-28 15:33:00,92.6,71.2,29.83,SSE,167,2.0,4.0,50,0.00,,,0.00,WeatherCatV1.15B25,2013-07-28 20:33:00,
2013-07-28 15:38:00,93.0,71.6,29.83,SSW,209,0.0,0.0,50,0.00,,,0.00,WeatherCatV1.15B25,2013-07-28 20:38:00,
2013-07-28 15:43:00,93.7,71.0,29.83,ESE,105,0.0,1.0,48,0.00,,,0.00,WeatherCatV1.15B25,2013-07-28 20:43:00,
2013-07-28 15:48:00,94.4,71.0,29.83,SSW,205,0.0,0.0,47,0.00,,,0.00,WeatherCatV1.15B25,2013-07-28 20:48:00,
2013-07-28 15:53:00,95.0,70.3,29.83,SSE,155,0.0,6.0,45,0.00,,,0.00,WeatherCatV1.15B25,2013-07-28 20:53:00,
2013-07-28 15:58:00,94.9,70.8,29.83,SSW,209,0.0,5.0,46,0.00,,,0.00,WeatherCatV1.15B25,2013-07-28 20:58:00,
2013-07-28 16:03:00,94.8,70.7,29.82,SE,138,0.0,5.0,46,0.00,,,0.00,WeatherCatV1.15B25,2013-07-28 21:03:00,
2013-07-28 16:08:00,95.1,69.0,29.82,SW,219,0.0,5.0,43,0.00,,,0.00,WeatherCatV1.15B25,2013-07-28 21:08:00,
2013-07-28 16:13:00,95.3,69.9,29.82,SW,225,0.0,4.0,44,0.00,,,0.00,WeatherCatV1.15B25,2013-07-28 21:13:00,
2013-07-28 16:18:00,95.6,70.2,29.81,South,177,1.0,5.0,44,0.00,,,0.00,WeatherCatV1.15B25,2013-07-28 21:18:00,
2013-07-28 16:23:00,95.4,70.6,29.81,SSW,194,0.0,4.0,45,0.00,,,0.00,WeatherCatV1.15B25,2013-07-28 21:23:00,
2013-07-28 16:28:00,95.6,69.5,29.81,SSW,198,0.0,5.0,43,0.00,,,0.00,WeatherCatV1.15B25,2013-07-28 21:28:00,
2013-07-28 16:33:00,95.8,71.0,29.81,South,181,0.0,0.0,45,0.00,,,0.00,WeatherCatV1.15B25,2013-07-28 21:33:00,
2013-07-28 16:38:00,96.0,69.8,29.81,SE,126,0.0,0.0,43,0.00,,,0.00,WeatherCatV1.15B25,2013-07-28 21:38:00,
2013-07-28 16:43:00,95.9,69.1,29.81,SSW,213,0.0,4.0,42,0.00,,,0.00,WeatherCatV1.15B25,2013-07-28 21:43:00,
2013-07-28 16:48:00,95.8,69.0,29.80,SW,232,0.0,4.0,42,0.00,,,0.00,WeatherCatV1.15B25,2013-07-28 21:48:00,
2013-07-28 16:53:00,95.6,69.5,29.80,NW,312,0.0,0.0,43,0.00,,,0.00,WeatherCatV1.15B25,2013-07-28 21:53:00,
2013-07-28 16:58:00,95.9,69.7,29.80,SSW,196,0.0,6.0,43,0.00,,,0.00,WeatherCatV1.15B25,2013-07-28 21:58:00,
2013-07-28 17:03:00,95.7,69.6,29.80,SSE,165,0.0,6.0,43,0.00,,,0.00,WeatherCatV1.15B25,2013-07-28 22:03:00,
2013-07-28 17:08:00,95.8,69.0,29.80,SSW,204,0.0,5.0,42,0.00,,,0.00,WeatherCatV1.15B25,2013-07-28 22:08:00,
2013-07-28 17:13:00,95.9,69.1,29.80,SSW,211,0.0,1.0,42,0.00,,,0.00,WeatherCatV1.15B25,2013-07-28 22:13:00,
2013-07-28 17:18:00,96.0,69.1,29.80,SSE,157,2.0,3.0,42,0.00,,,0.00,WeatherCatV1.15B25,2013-07-28 22:18:00,
2013-07-28 17:23:00,95.9,69.7,29.80,SW,234,4.0,5.0,43,0.00,,,0.00,WeatherCatV1.15B25,2013-07-28 22:23:00,
2013-07-28 17:28:00,95.6,69.5,29.80,SSE,153,0.0,11.0,43,0.00,,,0.00,WeatherCatV1.15B25,2013-07-28 22:28:00,
2013-07-28 17:33:00,95.6,69.5,29.79,SW,222,0.0,6.0,43,0.00,,,0.00,WeatherCatV1.15B25,2013-07-28 22:33:00,
2013-07-28 17:38:00,95.6,68.8,29.79,SSW,195,0.0,4.0,42,0.00,,,0.00,WeatherCatV1.15B25,2013-07-28 22:38:00,
2013-07-28 17:43:00,95.7,70.9,29.79,SE,131,0.0,2.0,45,0.00,,,0.00,WeatherCatV1.15B25,2013-07-28 22:43:00,
2013-07-28 17:48:00,95.8,69.0,29.78,SSE,149,5.0,10.0,42,0.00,,,0.00,WeatherCatV1.15B25,2013-07-28 22:48:00,
2013-07-28 17:53:00,95.5,68.0,29.78,ENE,74,4.0,5.0,41,0.00,,,0.00,WeatherCatV1.15B25,2013-07-28 22:53:00,
2013-07-28 17:58:00,95.3,69.2,29.78,SSW,195,0.0,4.0,43,0.00,,,0.00,WeatherCatV1.15B25,2013-07-28 22:58:00,
2013-07-28 18:03:00,95.3,69.2,29.79,South,179,1.0,1.0,43,0.00,,,0.00,WeatherCatV1.15B25,2013-07-28 23:03:00,
2013-07-28 18:08:00,95.2,69.8,29.79,SSW,192,0.0,2.0,44,0.00,,,0.00,WeatherCatV1.15B25,2013-07-28 23:08:00,
2013-07-28 18:13:00,95.1,70.4,29.79,South,176,0.0,7.0,45,0.00,,,0.00,WeatherCatV1.15B25,2013-07-28 23:13:00,
2013-07-28 18:18:00,94.9,70.2,29.78,SE,138,1.0,6.0,45,0.00,,,0.00,WeatherCatV1.15B25,2013-07-28 23:18:00,
2013-07-28 18:23:00,94.7,69.3,29.78,SSE,152,0.0,3.0,44,0.00,,,0.00,WeatherCatV1.15B25,2013-07-28 23:23:00,
2013-07-28 18:28:00,94.4,69.1,29.78,SSE,164,0.0,9.0,44,0.00,,,0.00,WeatherCatV1.15B25,2013-07-28 23:28:00,
2013-07-28 18:33:00,94.2,68.9,29.78,South,171,0.0,6.0,44,0.00,,,0.00,WeatherCatV1.15B25,2013-07-28 23:33:00,
2013-07-28 18:38:00,94.0,70.0,29.78,ESE,103,0.0,0.0,46,0.00,,,0.00,WeatherCatV1.15B25,2013-07-28 23:38:00,
2013-07-28 18:43:00,93.9,71.2,29.78,East,100,0.0,2.0,48,0.00,,,0.00,WeatherCatV1.15B25,2013-07-28 23:43:00,
2013-07-28 18:48:00,93.6,70.9,29.78,SSW,212,0.0,3.0,48,0.00,,,0.00,WeatherCatV1.15B25,2013-07-28 23:48:00,
2013-07-28 18:53:00,93.3,70.6,29.78,East,89,0.0,5.0,48,0.00,,,0.00,WeatherCatV1.15B25,2013-07-28 23:53:00,
2013-07-28 18:58:00,92.9,70.3,29.78,ESE,114,0.0,1.0,48,0.00,,,0.00,WeatherCatV1.15B25,2013-07-28 23:58:00,
2013-07-28 19:03:00,92.4,71.0,29.78,ENE,70,0.0,1.0,50,0.00,,,0.00,WeatherCatV1.15B25,2013-07-29 00:03:00,
2013-07-28 19:08:00,91.9,71.1,29.78,ESE,111,0.0,0.0,51,0.00,,,0.00,WeatherCatV1.15B25,2013-07-29 00:08:00,
2013-07-28 19:13:00,91.4,71.3,29.78,NNW,329,0.0,1.0,52,0.00,,,0.00,WeatherCatV1.15B25,2013-07-29 00:13:00,
2013-07-28 19:18:00,91.1,71.0,29.79,ESE,122,0.0,4.0,52,0.00,,,0.00,WeatherCatV1.15B25,2013-07-29 00:18:00,
2013-07-28 19:23:00,90.9,71.4,29.79,SSE,151,3.0,3.0,53,0.00,,,0.00,WeatherCatV1.15B25,2013-07-29 00:23:00,
2013-07-28 19:28:00,90.6,71.6,29.79,East,84,0.0,10.0,54,0.00,,,0.00,WeatherCatV1.15B25,2013-07-29 00:28:00,
2013-07-28 19:33:00,90.2,71.3,29.80,ESE,110,2.0,5.0,54,0.00,,,0.00,WeatherCatV1.15B25,2013-07-29 00:33:00,
2013-07-28 19:38:00,89.9,71.0,29.80,SSE,157,0.0,0.0,54,0.00,,,0.00,WeatherCatV1.15B25,2013-07-29 00:38:00,
2013-07-28 19:43:00,89.6,71.3,29.80,North,11,0.0,1.0,55,0.00,,,0.00,WeatherCatV1.15B25,2013-07-29 00:43:00,
2013-07-28 19:48:00,89.2,71.4,29.80,SSE,147,1.0,4.0,56,0.00,,,0.00,WeatherCatV1.15B25,2013-07-29 00:48:00,
2013-07-28 19:53:00,89.0,71.2,29.80,ESE,108,0.0,2.0,56,0.00,,,0.00,WeatherCatV1.15B25,2013-07-29 00:53:00,
2013-07-28 19:58:00,88.7,70.9,29.80,South,182,0.0,0.0,56,0.00,,,0.00,WeatherCatV1.15B25,2013-07-29 00:58:00,
2013-07-28 20:03:00,88.5,71.3,29.81,SE,135,0.0,0.0,57,0.00,,,0.00,WeatherCatV1.15B25,2013-07-29 01:03:00,
2013-07-28 20:08:00,88.3,71.1,29.81,South,175,0.0,1.0,57,0.00,,,0.00,WeatherCatV1.15B25,2013-07-29 01:08:00,
2013-07-28 20:13:00,88.1,71.4,29.81,ESE,119,0.0,0.0,58,0.00,,,0.00,WeatherCatV1.15B25,2013-07-29 01:13:00,
2013-07-28 20:18:00,87.9,71.2,29.81,SE,133,0.0,0.0,58,0.00,,,0.00,WeatherCatV1.15B25,2013-07-29 01:18:00,
2013-07-28 20:23:00,87.6,71.5,29.81,SE,134,0.0,2.0,59,0.00,,,0.00,WeatherCatV1.15B25,2013-07-29 01:23:00,
2013-07-28 20:28:00,87.4,71.3,29.81,ESE,117,4.0,10.0,59,0.00,,,0.00,WeatherCatV1.15B25,2013-07-29 01:28:00,
2013-07-28 20:33:00,87.1,71.0,29.82,East,90,1.0,2.0,59,0.00,,,0.00,WeatherCatV1.15B25,2013-07-29 01:33:00,
2013-07-28 20:38:00,86.9,70.8,29.82,ESE,111,0.0,0.0,59,0.00,,,0.00,WeatherCatV1.15B25,2013-07-29 01:38:00,
2013-07-28 20:43:00,86.7,70.6,29.82,SE,133,0.0,0.0,59,0.00,,,0.00,WeatherCatV1.15B25,2013-07-29 01:43:00,
2013-07-28 20:48:00,86.5,70.9,29.82,SE,142,0.0,1.0,60,0.00,,,0.00,WeatherCatV1.15B25,2013-07-29 01:48:00,
2013-07-28 20:53:00,86.2,70.7,29.82,SSE,152,0.0,0.0,60,0.00,,,0.00,WeatherCatV1.15B25,2013-07-29 01:53:00,
2013-07-28 20:58:00,86.0,71.0,29.82,SE,136,0.0,0.0,61,0.00,,,0.00,WeatherCatV1.15B25,2013-07-29 01:58:00,
2013-07-28 21:03:00,85.8,70.8,29.82,ENE,61,1.0,1.0,61,0.00,,,0.00,WeatherCatV1.15B25,2013-07-29 02:03:00,
2013-07-28 21:08:00,85.6,70.6,29.82,SSE,156,0.0,2.0,61,0.00,,,0.00,WeatherCatV1.15B25,2013-07-29 02:08:00,
2013-07-28 21:13:00,85.4,70.4,29.82,ESE,118,0.0,4.0,61,0.00,,,0.00,WeatherCatV1.15B25,2013-07-29 02:13:00,
2013-07-28 21:18:00,85.3,70.8,29.82,ESE,102,0.0,1.0,62,0.00,,,0.00,WeatherCatV1.15B25,2013-07-29 02:18:00,
2013-07-28 21:23:00,85.1,71.1,29.82,SE,136,0.0,3.0,63,0.00,,,0.00,WeatherCatV1.15B25,2013-07-29 02:23:00,
2013-07-28 21:28:00,84.9,70.9,29.82,SE,126,0.0,4.0,63,0.00,,,0.00,WeatherCatV1.15B25,2013-07-29 02:28:00,
2013-07-28 21:33:00,84.7,70.7,29.82,ESE,113,0.0,0.0,63,0.00,,,0.00,WeatherCatV1.15B25,2013-07-29 02:33:00,
2013-07-28 21:38:00,84.6,71.0,29.82,SE,142,0.0,0.0,64,0.00,,,0.00,WeatherCatV1.15B25,2013-07-29 02:38:00,
2013-07-28 21:43:00,84.4,70.9,29.82,SSE,164,0.0,0.0,64,0.00,,,0.00,WeatherCatV1.15B25,2013-07-29 02:43:00,
2013-07-28 21:48:00,84.2,71.1,29.83,ESE,117,0.0,5.0,65,0.00,,,0.00,WeatherCatV1.15B25,2013-07-29 02:48:00,
2013-07-28 21:53:00,84.1,71.0,29.83,ESE,105,0.0,1.0,65,0.00,,,0.00,WeatherCatV1.15B25,2013-07-29 02:53:00,
2013-07-28 21:58:00,84.0,70.9,29.83,SE,124,0.0,3.0,65,0.00,,,0.00,WeatherCatV1.15B25,2013-07-29 02:58:00,
2013-07-28 22:03:00,83.9,71.3,29.84,ESE,113,0.0,0.0,66,0.00,,,0.00,WeatherCatV1.15B25,2013-07-29 03:03:00,
2013-07-28 22:08:00,83.8,71.2,29.84,ESE,118,0.0,1.0,66,0.00,,,0.00,WeatherCatV1.15B25,2013-07-29 03:08:00,
2013-07-28 22:13:00,83.7,71.5,29.84,SE,124,0.0,0.0,67,0.00,,,0.00,WeatherCatV1.15B25,2013-07-29 03:13:00,
2013-07-28 22:18:00,83.6,71.5,29.84,SE,140,0.0,0.0,67,0.00,,,0.00,WeatherCatV1.15B25,2013-07-29 03:18:00,
2013-07-28 22:23:00,83.5,71.4,29.84,SE,140,0.0,1.0,67,0.00,,,0.00,WeatherCatV1.15B25,2013-07-29 03:23:00,
2013-07-28 22:28:00,83.4,71.7,29.84,SE,140,0.0,0.0,68,0.00,,,0.00,WeatherCatV1.15B25,2013-07-29 03:28:00,
2013-07-28 22:33:00,83.3,72.0,29.84,SE,133,0.0,1.0,69,0.00,,,0.00,WeatherCatV1.15B25,2013-07-29 03:33:00,
2013-07-28 22:38:00,83.2,71.5,29.84,SSE,155,0.0,4.0,68,0.00,,,0.00,WeatherCatV1.15B25,2013-07-29 03:38:00,
2013-07-28 22:43:00,83.0,71.8,29.84,SE,134,0.0,4.0,69,0.00,,,0.00,WeatherCatV1.15B25,2013-07-29 03:43:00,
2013-07-28 22:48:00,82.9,71.7,29.85,SSE,167,0.0,2.0,69,0.00,,,0.00,WeatherCatV1.15B25,2013-07-29 03:48:00,
2013-07-28 22:53:00,82.8,71.6,29.85,SE,131,0.0,3.0,69,0.00,,,0.00,WeatherCatV1.15B25,2013-07-29 03:53:00,
2013-07-28 22:58:00,82.6,71.8,29.85,SE,128,0.0,2.0,70,0.00,,,0.00,WeatherCatV1.15B25,2013-07-29 03:58:00,
2013-07-28 23:01:00,82.5,71.7,29.85,SSE,166,0.0,4.0,70,0.00,,,0.00,WeatherCatV1.15B25,2013-07-29 04:01:00,
2013-07-28 23:06:00,82.4,71.6,29.85,South,173,0.0,3.0,70,0.00,,,0.00,WeatherCatV1.15B25,2013-07-29 04:06:00,
2013-07-28 23:11:00,82.3,71.5,29.85,SSE,155,0.0,3.0,70,0.00,,,0.00,WeatherCatV1.15B25,2013-07-29 04:11:00,
2013-07-28 23:16:00,82.1,71.7,29.84,SSE,157,0.0,0.0,71,0.00,,,0.00,WeatherCatV1.15B25,2013-07-29 04:16:00,
2013-07-28 23:21:00,82.0,71.6,29.84,South,178,4.0,4.0,71,0.00,,,0.00,WeatherCatV1.15B25,2013-07-29 04:21:00,
2013-07-28 23:26:00,82.0,72.1,29.84,SE,143,0.0,3.0,72,0.00,,,0.00,WeatherCatV1.15B25,2013-07-29 04:26:00,
2013-07-28 23:31:00,81.9,72.0,29.85,South,173,0.0,4.0,72,0.00,,,0.00,WeatherCatV1.15B25,2013-07-29 04:31:00,
2013-07-28 23:36:00,81.9,72.0,29.85,SSE,150,0.0,4.0,72,0.00,,,0.00,WeatherCatV1.15B25,2013-07-29 04:36:00,
2013-07-28 23:41:00,81.8,72.3,29.85,SSE,159,0.0,4.0,73,0.00,,,0.00,WeatherCatV1.15B25,2013-07-29 04:41:00,
2013-07-28 23:46:00,81.8,72.3,29.85,South,188,0.0,1.0,73,0.00,,,0.00,WeatherCatV1.15B25,2013-07-29 04:46:00,
2013-07-28 23:51:00,81.7,72.2,29.85,ESE,123,0.0,4.0,73,0.00,,,0.00,WeatherCatV1.15B25,2013-07-29 04:51:00,
2013-07-28 23:56:00,81.6,72.1,29.85,SSE,160,0.0,5.0,73,0.00,,,0.00,WeatherCatV1.15B25,2013-07-29 04:56:00,